Location: Table Mountain
(47.2500°N, 120.5778°W)
Time: 19:00:00
(UTC-08:00)

Vanguard 3 - All Passes

Search period start: 17 December 2017 00:00
Search period end: 27 December 2017 00:00
Orbit: 509 x 3263 km, 33.3° (Epoch: 16 December)

Date Brightness Start Highest point End Pass type
(mag) Time Alt. Az. Time Alt. Az. Time Alt. Az.
17 Dec - 12:24:39 10° SSW 12:26:42 13° S 12:28:34 10° SSE daylight
18 Dec - 11:10:41 10° SSW 11:13:34 14° S 11:15:57 10° SE daylight
18 Dec - 13:22:49 10° SSW 13:24:13 11° S 13:25:33 10° S daylight
19 Dec - 09:56:48 10° SSW 10:00:12 14° S 10:02:59 10° SE daylight
19 Dec - 12:08:16 10° SW 12:11:11 15° S 12:13:37 10° SSE daylight
20 Dec - 08:43:24 10° S 08:46:36 12° SSE 08:49:19 10° SE daylight
20 Dec - 10:53:47 10° SW 10:58:00 17° S 11:01:15 10° SE daylight
20 Dec - 13:06:54 10° SW 13:08:39 12° SSW 13:10:15 10° S daylight
21 Dec - 09:39:16 10° SSW 09:44:36 18° S 09:48:32 10° SE daylight
21 Dec - 11:51:53 10° SW 11:55:38 17° S 11:58:35 10° SSE daylight
22 Dec - 08:24:57 10° SSW 08:30:54 17° SSE 08:35:21 10° SE daylight
22 Dec - 10:36:58 10° SW 10:42:26 21° S 10:46:20 10° SE daylight
22 Dec - 12:50:53 10° SW 12:53:03 13° SSW 12:54:57 10° S daylight
23 Dec - 07:11:22 10° S 07:16:54 14° SSE 07:21:19 10° SE visible
23 Dec - 09:21:56 10° SW 09:28:57 23° S 09:33:45 10° SE daylight
23 Dec - 11:35:27 10° WSW 11:40:03 19° SSW 11:43:29 10° SSE daylight
24 Dec - 06:00:25 10° SSE 06:02:37 11° SSE 06:04:39 10° SE visible
24 Dec - 08:07:01 10° SSW 08:15:07 22° SSE 08:20:45 10° ESE daylight
24 Dec - 10:20:07 10° SW 10:26:49 25° S 10:31:19 10° SE daylight
24 Dec - 12:34:47 10° SW 12:37:24 13° SSW 12:39:37 10° S daylight
25 Dec - 06:52:35 10° SSW 07:00:58 19° SSE 07:07:07 10° ESE visible
25 Dec - 09:04:40 10° SW 09:13:13 27° S 09:18:48 10° ESE daylight
25 Dec - 11:18:57 10° WSW 11:24:25 21° SSW 11:28:18 10° SSE daylight
26 Dec - 05:39:24 10° S 05:46:30 15° SSE 05:52:16 10° ESE visible
26 Dec - 07:49:15 10° SW 07:59:16 27° S 08:05:52 10° ESE daylight
26 Dec - 10:03:14 10° WSW 10:11:06 28° S 10:16:12 10° SE daylight
26 Dec - 12:18:35 10° WSW 12:21:41 14° SSW 12:24:15 10° S daylight
